View from above orbital plane
|
View from above satellite
|
Ground track
|
The orbit data is extracted from the following two-line orbital elements,
1 27534U 02046A 21023.86834466 .00000044 00000-0 31563-4 0 9996
2 27534 82.9370 346.4870 0037401 49.3635 7.0313 13.72729635918321
Epoch (UTC): | 23 January 2021 20:50:24 |
Eccentricity: | 0.0037401 |
inclination: | 82.9370° |
perigee height: | 962 km |
apogee height: | 1017 km |
right ascension of ascending node: | 346.4870° |
argument of perigee: | 49.3635° |
revolutions per day: | 13.72729635 |
mean anomaly at epoch: | 7.0313° |
orbit number at epoch: | 91832 |
The dashed part of the orbit path shows where the satellite is in the earth's shadow,
|
|